Location: Kogenheim
(48.3369°N, 7.5443°E)
Time: 17:46:35
(UTC+00:00)

Daily predictions for brighter satellites

Satellite Brightness Start Highest point End
(mag) Time Altitude Azimuth Time Altitude Azimuth Time Altitude Azimuth
Cosmos 1452 Rocket 3.6 17:28:10 10° S 17:33:17 57° ESE 17:38:26 10° NNE
Cosmos 44 3.6 17:27:53 10° NW 17:33:19 65° NE 17:38:42 10° SE
Cosmos 2082 3.7 17:28:37 10° NNW 17:34:16 74° ENE 17:39:53 10° SSE
Cosmos 1782 4.2 17:32:37 10° NNW 17:36:26 46° W 17:40:15 10° SSW
CZ-4B R/B 1.2 17:34:25 10° NNE 17:37:25 54° E 17:40:23 10° S
Cosmos 1741 Rocket 4.0 17:37:20 10° NNW 17:42:42 74° ENE 17:48:00 10° SSE
Cosmos 1437 4.1 17:44:09 10° NNE 17:46:11 17° ENE 17:48:12 10° ESE
Cosmos 1697 Rocket 2.7 17:41:39 10° SSW 17:47:16 70° ESE 17:52:54 10° NNE
Cosmos 2360 4.3 17:42:41 10° S 17:48:16 59° ESE 17:53:53 10° NE
RESURS DK-1 3.7 17:44:21 10° NW 17:48:18 44° WSW 17:52:13 10° S
ERS-2 2.9 17:46:10 10° NE 17:49:25 30° E 17:52:40 10° SSE
USA 234 3.6 17:43:33 10° ENE 17:49:50 47° SE 17:56:05 10° SSW
MOS 1 Rocket 3.5 17:45:51 10° NNE 17:50:41 86° WNW 17:55:48 10° SSW
SL-16 R/B 3.8 17:50:11 10° ESE 17:52:34 13° E 17:54:55 10° ENE
IRS-1C Rocket 4.1 17:47:48 10° SSE 17:53:04 84° ENE 17:58:23 10° NNW
Okean O Rocket 3.8 17:53:01 10° SSW 17:56:52 30° W 18:00:45 10° NNW
NOSS 2-1 (E) 4.3 17:53:30 10° NW 17:58:20 62° NE 18:05:06 10° SE
PSLV R/B 4.2 17:54:21 10° NNE 17:58:21 47° E 18:02:17 10° S
SAR-Lupe-4 4.2 17:55:21 10° NNE 17:58:39 34° E 18:01:56 10° SSE
Cosmos 2369 3.7 17:53:31 10° SSW 17:59:08 69° ESE 18:04:48 10° NNE
USA 305 3.6 17:55:49 10° SSW 17:59:46 38° SE 18:03:07 13° ENE
Cosmos 1607 4.2 17:56:51 10° SW 18:03:17 81° NW 18:09:49 10° NE
SeaSat 1 2.5 18:00:34 10° NE 18:05:29 60° ESE 18:10:21 10° SSW
Ariane Rocket 4.3 18:03:13 12° E 18:06:18 21° ENE 18:10:02 10° NNE
CZ-4 R/B 1.3 18:03:03 10° SSE 18:06:54 86° W 18:10:47 10° NNW
USA 307 3.5 18:03:32 10° SSW 18:07:32 40° SE 18:10:33 16° ENE
SKYMED 2 4.1 18:03:17 10° N 18:07:36 62° WNW 18:11:52 10° SSW
Cosmos 2263 Rocket 2.4 18:02:42 10° NNW 18:08:07 47° NE 18:13:28 10° SE
Cosmos 2074 Rocket 4.3 18:07:11 10° SSE 18:13:04 45° E 18:18:59 10° NNE
FALCON 9 DEB 3.5 18:10:47 10° SW 18:13:47 40° SE 18:15:24 22° E
USA 306 3.3 18:09:48 10° SW 18:13:53 46° SE 18:16:45 18° ENE
Cosmos 2227 Rocket 4.2 18:10:40 10° NW 18:15:37 32° WSW 18:20:33 10° SSW
SAR-Lupe-1 4.1 18:13:08 10° NNE 18:16:43 57° ESE 18:20:15 10° S
USA 308 3.2 18:13:40 10° SW 18:17:46 47° SE 18:20:27 20° ENE
Cosmos 1743 Rocket 4.2 18:15:25 10° SSW 18:19:43 58° WNW 18:24:05 10° N
H-2A R/B 4.3 18:16:39 10° N 18:20:02 25° WNW 18:23:22 10° WSW
Cosmos 1805 Rocket 3.4 18:16:23 10° S 18:20:44 79° E 18:25:08 10° NNE
Meteor 1-27 Rocket 3.8 18:19:38 10° NNW 18:25:11 80° W 18:30:42 10° S
Cosmos 2184 Rocket 4.1 18:19:43 10° SSE 18:25:39 53° E 18:31:38 10° NNE
H-2A R/B 2.6 18:21:16 10° S 18:26:38 68° WSW 18:32:06 10° NNW
ARGOS 3.2 18:22:00 10° SSE 18:27:26 89° ENE 18:32:54 10° NNW
Cosmos 2228 Rocket 4.0 18:23:45 10° NNW 18:28:12 54° W 18:32:33 10° S
SJ-6B 3.7 18:28:39 24° ESE 18:30:04 30° ENE 18:33:41 10° N
OBJECT-B 2.7 18:32:13 17° NE 18:32:13 17° NE 18:33:28 10° NNE
Cosmos 1271 Rocket 2.6 18:27:18 10° N 18:31:00 58° ENE 18:34:41 10° SSE
Cosmos 2278 3.6 18:25:50 10° SSW 18:31:30 77° ESE 18:37:13 10° NNE
COSMOS 2455 3.0 18:25:37 10° NW 18:31:40 79° WSW 18:37:39 10° SSE
SL-08 RB Rocket 3.6 18:27:47 10° SSE 18:32:15 73° ENE 18:36:47 10° N
FALCON 9 DEB 2.9 18:29:20 10° SW 18:32:28 63° SSE 18:33:29 37° E
Meteor 1-25 Rocket 4.4 18:28:42 10° SSE 18:34:15 50° E 18:39:48 10° NNE
GP-B 3.8 18:33:07 23° ESE 18:34:54 31° ENE 18:38:48 10° NNE
HJ-1C 3.6 18:31:45 10° S 18:35:04 69° WSW 18:38:25 10° NNW
Cosmos 1461 4.1 18:33:21 10° S 18:37:14 26° ESE 18:37:22 26° ESE
Okean 1 3.8 18:33:55 10° N 18:37:41 37° ENE 18:38:49 30° ESE
CZ-2C R/B 2.6 18:32:09 10° NNE 18:37:42 65° ESE 18:43:05 10° S
Cosmos 1689 Rocket 2.4 18:35:08 10° N 18:37:58 61° WNW 18:40:48 10° SSW
MetOp-A 4.3 18:32:59 10° SE 18:38:09 51° ENE 18:43:21 10° N
Cosmos 1602 4.2 18:34:57 10° SSE 18:38:31 37° E 18:42:08 10° NNE
FALCON 9 DEB 4.2 18:35:57 10° WNW 18:39:11 37° N 18:40:27 26° NE
Cosmos 44 Rocket 4.3 18:34:37 10° NNW 18:39:23 34° NE 18:41:15 26° ENE
CSL-04 Debris 4.3 18:35:16 10° SSE 18:40:41 81° WSW 18:46:11 10° NNW
Cosmos 1666 Rocket 3.4 18:38:21 10° S 18:42:39 63° E 18:46:56 10° NNE
Cosmos 1862 Rocket 3.8 18:38:18 10° N 18:42:41 50° ENE 18:45:36 20° SE
ATLAS 5 CENTAUR R/B 3.7 18:28:09 10° SW 18:42:57 62° NW 18:46:35 13° NE
Cosmos 2084 3.5 18:38:47 10° SW 18:43:00 76° NW 18:46:19 17° NE
BREEZE-M DEB (TANK) 1.7 18:43:05 10° W 18:45:19 81° NNW 18:46:16 42° ENE
Cosmos 1844 Rocket 3.7 18:41:20 10° N 18:45:58 26° NE 18:47:04 24° ENE
Cosmos 1331 Rocket 4.1 18:41:27 10° SSW 18:46:45 83° WNW 18:52:02 10° NNE
Gbstr 26 Del rocket 3.4 18:42:50 10° SW 18:47:14 58° SSE 18:49:30 32° E
CSL-04 Rocket 3.9 18:42:32 10° S 18:48:05 76° WSW 18:53:40 10° NNW
Cosmos 1486 Rocket 4.3 18:43:09 10° NNW 18:48:15 47° ENE 18:50:25 31° ESE
TSX-5 4.5 18:45:15 10° NW 18:49:43 55° WSW 18:52:49 13° S
YAOGAN 1 4.4 18:53:02 10° SSW 18:56:54 32° W 19:00:49 10° NNW
FALCON 9 DEB 2.7 18:53:44 10° WSW 18:56:56 85° SSE 18:56:59 85° ESE
Helios 1A Rocket 4.0 18:53:22 10° S 18:57:18 46° W 19:01:14 10° NNW
Okean-O 4.4 18:54:16 10° SSW 18:58:15 33° W 19:02:17 10° NNW
SL-4 R/B 1.7 18:59:31 10° W 19:03:00 62° NNW 19:03:19 58° NNE
FALCON 9 DEB 3.1 19:02:13 10° WSW 19:05:10 69° WNW 19:05:10 69° WNW
APEX 3.5 19:03:32 10° NNW 19:05:43 41° NNW 19:05:43 41° NNW
Cosmos 1980 Rocket 2.8 19:01:20 10° SW 19:06:54 58° WNW 19:12:34 10° NNE
Lacrosse 5 rocket 3.7 19:04:11 10° WNW 19:07:33 22° SW 19:10:46 10° S
Sich 1 4.2 19:04:56 10° SSW 19:09:07 44° WNW 19:13:21 10° N
Cosmos 2084 Rocket 4.4 19:09:17 10° NNW 19:12:58 34° NNE 19:12:58 34° NNE
Cosmos 1302 Rocket 3.9 19:09:35 10° SSW 19:14:47 90° E 19:20:01 10° NNE
Cosmos 2322 Rocket 2.7 19:11:00 10° S 19:15:03 39° SE 19:15:03 39° SE
Cosmos 968 Rocket 3.4 19:11:54 10° NNW 19:17:12 87° ENE 19:19:11 40° SSE
Cosmos 1503 Rocket 4.1 19:18:40 10° NNW 19:23:43 54° ENE 19:23:43 54° ENE
Cosmos 1867 4.1 19:18:42 10° SW 19:24:05 59° NW 19:28:06 18° NNE
Cosmos 1633 Rocket 3.6 19:20:49 10° SSW 19:25:10 59° WNW 19:29:34 10° N
USA 234 3.4 19:29:23 28° NE 19:33:03 70° NNW 19:39:33 10° WSW
SL-16 R/B 2.0 19:30:01 10° SSW 19:35:41 77° ESE 19:37:14 49° NE
USA 305 3.4 19:35:24 10° WSW 19:39:14 57° NW 19:39:14 57° NW
MOS 1 4.4 19:39:28 35° S 19:41:57 75° WSW 19:47:40 10° NNW
Resurs 01 Rocket 3.1 19:44:38 27° N 19:44:38 27° N 19:46:46 10° N
SeaSat 1 4.4 19:38:34 10° N 19:42:42 27° NW 19:46:49 10° WSW
Ariane Rocket 3.2 19:43:24 46° SSW 19:44:47 67° WSW 19:49:54 10° NNW
USA 307 3.7 19:43:16 10° W 19:46:43 49° WNW 19:46:43 49° WNW
Okean 1-7 4.5 19:44:37 10° N 19:46:54 30° N 19:46:54 30° N
Cosmos 2154 Rocket 4.5 19:43:13 10° SSW 19:49:22 59° WNW 19:55:30 10° N
Cosmos 2263 Rocket 3.7 19:46:59 10° NW 19:51:50 31° WSW 19:55:56 13° SSW
USA 306 4.0 19:49:41 10° W 19:52:52 42° WNW 19:52:52 42° WNW
Cosmos 1470 Rocket 4.5 19:52:57 10° SSW 19:57:17 48° WNW 20:01:39 10° N
USA 308 4.2 19:53:36 10° W 19:56:37 39° WNW 19:56:37 39° WNW
Meteor 1-14 Rocket 4.4 19:54:14 10° SSW 19:59:49 68° WNW 20:05:22 10° N
OBJECT-B 3.9 20:05:18 14° NW 20:05:18 14° NW 20:05:53 10° NW
Meteor 2-4 Rocket 4.3 20:05:23 10° NNW 20:11:00 57° W 20:11:52 52° SW
BREEZE-M DEB (TANK) 4.3 20:02:36 10° W 20:17:22 73° SSW 20:17:22 73° SSW
Cosmos 1844 4.3 20:13:40 10° NNW 20:18:00 52° NNW 20:18:00 52° NNW
USA 281 4.4 20:22:44 30° NNE 20:22:44 30° NNE 20:26:57 10° NNW
Cosmos 44 Rocket 4.4 20:16:06 10° NW 20:19:59 44° WNW 20:19:59 44° WNW
Cosmos 2278 Rocket 4.0 20:24:02 10° NNW 20:26:31 22° N 20:26:31 22° N
Cosmos 1844 Rocket 3.6 20:24:49 10° NNW 20:28:44 45° NW 20:28:44 45° NW
Cosmos 2322 Rocket 4.3 20:55:20 10° WSW 20:57:03 19° WSW 20:57:03 19° WSW
USA 234 4.3 21:16:44 40° NNW 21:16:44 40° NNW 21:21:41 10° WNW
SL-16 R/B 4.3 21:15:54 10° W 21:19:19 23° WNW 21:19:19 23° WNW
